Simultaneous Nadir Overpasses (SNOs) Predictions

Prediction of SNOs between GOES-15 and NPP Satellite Orbit:

Table of predicted SNOs for the next 14.0 days since TLE Epoch: 11/11/2023
Index Date Time (GOES-15) GOES-15 Lat,Lon NPP Lat,Lon Distance(km) Time Diff (sec)
1 11/11/2023 09:34:13 -0.08, 61.77 -1.00, 57.66 468.27 80
2 11/12/2023 09:18:09 -0.10, 61.77 0.03, 62.19 48.99 80
3 11/14/2023 21:21:12 0.09, 61.75 0.14, 61.45 33.97 80
4 11/15/2023 20:59:46 0.11, 61.76 -0.83, 65.99 481.56 80
5 11/17/2023 09:21:43 -0.07, 61.80 -0.35, 60.68 128.05 80
6 11/18/2023 09:05:38 -0.09, 61.81 0.69, 65.21 387.93 80
7 11/19/2023 21:27:25 0.05, 61.79 0.49, 59.94 211.41 80
8 11/20/2023 21:06:01 0.07, 61.81 -0.54, 64.47 303.66 80
9 11/22/2023 09:27:57 -0.04, 61.86 -0.62, 59.16 307.94 80
10 11/23/2023 09:11:52 -0.05, 61.87 0.36, 63.70 208.00 80
11 11/24/2023 21:33:39 0.03, 61.84 0.81, 58.43 389.65 80
